{"data":{"norad_id":52554,"intl_designator":"2022-051X","name":"STARLINK-3770","alt_names":[],"object_type":"PAYLOAD","status":"ACTIVE","operator":null,"country":"US","launch_date":"2022-05-13","launch_site_code":"AFWTR","launch_vehicle":null,"mission":null,"orbit_class":"UNKNOWN","rcs_meters":null,"size_class":null,"mass_kg":null,"dimensions":null,"purposes":["comms"],"wikipedia_slug":null,"has_3d_model":false,"image_url":null,"decayed_at":null,"tle_current":{"epoch":"2026-09-19T17:07:21.165888Z","epoch_age_seconds":131318,"freshness":"FRESH","line1":"1 52554U 22051X   26262.71343942 -.00000372  00000+0 -22440-6 0  9993","line2":"2 52554  53.1613 337.4336 0001070  83.5396 276.5727 15.31705375240732","mean_motion":15.31705375,"eccentricity":0.000107,"inclination_deg":53.1613,"raan_deg":337.4336,"arg_perigee_deg":83.5396,"mean_anomaly_deg":276.5727,"bstar":-2.244e-7,"rev_number":24073,"period_min":94.012858053723,"perigee_km":469.99114455312,"apogee_km":471.45680080127,"semimajor_km":6848.8609726772,"source":"CELESTRAK","updated_at":"2026-09-20T09:00:40.061800Z"}}}